Theta_e
326 326 325 324 323 323 323 323 322 321 321 320 319 318 318 317 318 316 315 314 315 315 316 316 317 317 312 301 302 312 324 322 312 309 307 305 303 302 299 300 300 298 299 301 301 302 301
325 324 324 323 323 323 323 322 322 321 321 320 319 317 316 317 316 315 314 314 314 314 315 316 317 315 307 297 309 312 314 315 313 310 306 306 304 304 302 300 299 300 299 301 301 302 301
325 324 324 322 322 321 321 320 321 321 320 320 318 316 315 315 314 314 314 313 313 314 315 317 316 312 304 302 311 314 315 314 312 309 306 307 308 305 303 300 302 300 297 299 301 301 300
325 324 324 322 321 320 319 319 320 321 321 320 318 315 314 313 313 313 313 313 312 314 315 315 314 309 301 311 313 314 308 309 309 310 309 310 309 305 303 303 300 297 296 293 300 300 300
324 324 323 322 321 320 319 319 320 320 321 319 317 315 314 312 312 312 312 312 313 314 315 315 310 308 301 314 309 306 306 304 304 307 309 309 307 303 301 297 295 294 291 292 294 299 298
324 323 323 322 321 320 319 319 319 319 319 318 316 315 313 312 312 312 311 312 312 310 309 312 309 303 305 301 302 303 306 303 302 304 303 303 301 298 295 295 288 291 290 292 291 297 298
324 323 322 321 321 321 321 320 319 318 318 317 316 314 313 313 313 312 309 306 302 303 303 301 303 300 302 303 304 301 303 303 304 302 296 299 296 293 296 296 297 294 292 291 294 297 294
322 322 322 322 321 321 321 321 319 318 318 317 315 314 313 313 313 311 307 302 302 302 293 299 299 298 301 302 295 300 304 297 298 294 296 295 292 297 297 296 294 293 291 291 294 296 294
320 320 321 321 322 321 321 321 319 318 317 316 314 313 312 312 311 307 305 305 309 304 294 296 300 298 299 301 296 297 302 299 296 293 293 292 295 296 294 294 291 291 290 290 290 292 292
319 318 319 320 321 320 320 320 319 318 316 315 313 312 311 310 305 305 302 308 309 306 290 294 296 299 301 301 296 303 303 299 296 293 292 292 296 294 292 291 292 288 293 292 290 288 285
318 318 318 318 319 318 317 318 318 318 316 314 312 312 311 310 306 304 306 310 310 303 285 298 296 304 301 297 298 298 303 299 294 293 293 291 292 291 290 291 292 291 294 291 290 287 287
318 318 318 317 317 317 317 316 316 316 315 313 312 312 310 309 307 307 308 308 305 290 284 293 294 293 294 295 295 297 299 301 299 294 293 292 295 294 293 294 294 295 292 290 290 287 281
317 317 317 317 316 316 316 316 315 315 313 312 311 310 309 310 302 308 307 300 289 285 297 291 289 293 292 291 291 292 290 290 289 286 287 291 292 294 293 289 291 290 287 280 279 279 280
317 317 316 317 316 316 316 315 314 313 312 311 309 307 308 308 307 306 301 293 283 291 291 293 291 292 290 291 290 291 290 288 292 289 286 283 283 289 292 289 286 287 285 280 274 277 280
317 316 316 316 316 315 315 314 313 312 310 308 306 302 301 305 306 307 295 284 288 291 291 289 291 288 289 290 290 291 289 287 289 290 285 283 285 292 292 292 290 286 284 289 281 283 278
317 316 316 315 315 315 314 313 311 310 308 306 301 299 299 306 309 300 288 285 288 290 292 291 285 289 284 287 288 288 288 290 289 291 292 287 280 289 290 291 291 289 290 281 282 274 273
316 316 315 314 314 313 313 312 309 307 306 305 298 294 299 306 304 292 282 284 287 294 293 290 286 286 288 285 286 285 287 287 290 288 290 287 285 284 287 285 284 285 283 284 283 281 274
314 314 314 313 313 313 310 308 307 306 305 301 295 289 299 303 288 289 285 287 292 292 294 291 291 289 287 286 283 284 285 286 288 288 283 287 284 279 281 288 289 287 284 284 279 277 279
313 313 312 312 310 308 306 306 305 304 303 298 290 290 299 299 283 285 289 290 291 290 291 289 288 289 288 284 281 284 285 288 287 285 282 284 280 274 276 281 286 282 282 282 282 281 276
311 309 308 307 306 306 305 305 305 303 303 298 290 284 288 293 292 288 286 287 286 290 289 289 288 288 285 282 286 282 283 285 286 285 288 288 281 277 273 276 280 277 279 281 279 275 276
306 306 306 305 305 305 304 304 303 303 303 297 290 285 289 282 284 288 288 288 284 284 289 289 285 285 283 279 280 279 281 282 284 286 286 283 275 277 278 279 279 279 279 280 278 279 275
305 305 304 304 304 303 303 303 302 302 300 292 286 286 288 287 287 286 287 285 284 285 285 282 282 283 282 279 280 277 279 280 279 283 281 283 275 277 274 278 278 276 279 280 280 280 280
304 303 303 302 302 302 301 300 300 300 297 290 290 291 289 285 284 283 283 284 283 285 284 285 283 280 279 281 283 284 284 284 283 280 279 278 277 274 271 277 277 273 277 279 280 281 281
302 302 301 301 300 300 300 300 300 298 295 292 290 290 283 279 282 282 282 283 282 282 281 283 283 280 283 286 286 284 283 282 282 281 282 278 277 277 273 276 267 278 284 285 282 284 286
301 300 300 300 300 299 299 299 300 298 296 290 289 288 284 278 282 282 282 282 281 281 279 280 282 285 285 284 277 275 276 277 278 281 282 282 280 274 272 272 276 279 282 280 280 280 289
301 300 300 300 299 299 299 299 298 297 296 289 288 289 285 278 279 282 282 281 278 277 278 280 285 286 286 280 276 269 269 272 273 276 283 283 281 276 275 270 268 278 283 285 286 280 286
300 300 299 299 299 298 298 298 298 297 295 290 287 289 286 278 282 282 279 279 281 279 277 279 280 281 285 276 273 272 271 276 271 272 273 275 275 273 273 271 274 283 283 286 276 277 284
300 300 299 299 299 298 298 297 298 298 296 290 287 288 287 281 282 284 284 282 281 280 276 279 277 278 278 275 273 274 273 275 274 276 274 272 272 273 274 270 268 286 282 277 282 285 286
299 299 299 299 299 299 298 298 298 298 296 291 285 289 289 284 281 286 287 288 286 284 281 281 278 278 279 276 273 275 274 276 274 269 278 273 278 275 275 275 283 285 283 286 287 285 287
Wind_Speed
10 9 9 7 9 8 8 8 6 5 7 9 10 9 10 12 13 16 18 22 21 22 21 21 18 14 5 4 9 3 5 2 1 1 1 2 1 2 3 3 2 6 7 6 7 13 10
11 10 10 9 9 9 9 9 9 6 9 10 10 10 10 11 13 15 18 21 25 22 16 20 13 9 1 7 2 3 5 2 2 1 1 2 4 3 2 3 4 0 5 11 11 14 10
12 11 10 10 10 9 10 8 9 8 6 9 9 9 12 12 14 14 16 20 26 22 18 14 6 2 2 15 0 5 3 1 2 2 1 2 3 2 2 4 2 4 8 11 14 8 7
14 13 12 11 11 10 10 9 9 10 6 8 9 9 11 13 15 16 17 21 26 19 13 5 1 1 9 3 3 5 3 2 2 4 5 3 5 3 3 1 4 5 2 7 5 4 3
14 13 13 12 11 11 10 10 10 9 7 8 8 8 10 13 15 18 18 23 25 12 7 3 2 2 10 6 1 4 5 2 7 1 2 4 4 2 2 1 5 0 10 8 7 3 5
15 13 13 12 12 11 10 10 10 9 9 8 9 7 9 13 15 18 21 23 15 7 5 4 2 5 3 2 4 8 6 3 4 2 1 3 3 5 3 7 11 7 8 7 8 5 10
16 16 14 14 13 13 12 11 11 9 8 8 8 7 8 12 14 16 12 6 8 4 7 7 19 15 24 11 7 4 5 5 2 2 7 2 5 13 14 13 14 11 14 17 18 15 7
17 16 14 15 13 14 13 13 10 9 8 8 8 7 7 11 14 15 2 6 2 2 16 15 18 14 13 6 6 7 4 8 8 14 4 4 12 15 9 10 11 14 15 17 13 13 8
16 16 16 15 15 15 14 13 11 10 10 9 10 7 6 10 13 3 2 3 1 4 4 8 5 4 2 6 3 7 4 2 3 8 12 16 11 4 8 10 8 11 13 8 10 3 5
16 16 16 16 16 15 14 13 12 11 11 11 10 7 4 9 2 1 1 2 0 4 4 8 2 1 3 3 4 6 6 1 2 4 5 6 5 8 6 8 11 9 13 11 7 5 11
16 16 16 17 16 14 14 14 13 13 13 12 10 7 2 1 2 1 4 6 1 3 8 3 3 2 1 2 6 1 3 1 4 2 3 4 1 4 6 7 6 12 6 9 6 5 6
17 18 18 17 16 15 16 15 13 14 14 14 11 8 4 2 1 2 5 7 1 2 9 4 3 5 6 5 5 9 3 2 3 3 3 8 2 3 5 3 5 7 8 5 6 6 12
18 19 18 18 17 16 15 14 13 15 16 15 13 10 6 1 2 3 4 2 1 5 5 3 3 5 4 4 5 6 5 7 5 7 7 13 13 2 6 3 6 11 3 3 4 5 10
20 19 18 19 18 17 16 14 14 17 18 16 12 9 3 1 3 4 3 3 6 5 7 4 4 8 7 5 0 3 2 2 10 10 7 7 11 3 6 3 4 7 3 4 7 8 15
21 20 19 19 19 17 16 15 15 17 20 19 14 2 3 1 4 3 5 4 6 5 2 6 8 6 4 2 5 6 6 6 7 12 0 6 7 7 10 5 5 3 9 9 12 17 15
23 22 21 20 19 19 19 18 22 25 25 23 5 3 2 1 4 5 3 5 5 1 2 1 3 2 3 6 6 6 5 8 4 13 11 3 11 3 4 11 3 6 4 4 3 6 10
22 21 21 18 19 19 18 23 27 28 26 15 4 5 2 4 5 3 4 7 5 2 1 1 1 4 3 2 2 1 2 4 5 7 4 2 4 8 16 6 5 9 12 11 13 11 13
21 20 19 17 16 16 22 26 27 27 22 7 3 3 2 2 3 3 4 5 1 5 3 1 3 4 2 1 1 2 3 5 5 7 4 5 5 15 22 18 20 18 12 9 5 7 10
17 16 13 13 17 23 25 24 25 24 8 5 4 3 3 2 3 4 3 3 4 3 3 3 2 1 2 2 4 2 2 7 10 9 7 6 4 12 23 5 6 6 19 16 15 15 18
12 16 21 24 24 24 25 24 25 20 13 5 5 4 1 3 1 4 5 5 5 1 3 3 3 2 2 2 7 4 2 2 11 8 9 6 6 10 14 23 22 25 24 22 21 15 20
24 27 24 24 24 22 22 21 19 14 9 5 2 3 1 5 4 4 6 5 5 5 5 9 6 6 6 4 2 5 3 8 5 9 4 3 8 13 19 22 25 27 31 30 27 26 25
26 25 24 25 24 20 19 16 16 11 6 4 5 4 2 2 4 7 6 5 7 3 6 4 5 7 4 4 5 6 7 3 6 5 6 4 11 14 21 24 23 27 28 30 30 30 29
25 23 23 22 21 19 17 16 11 8 4 3 1 1 3 3 4 4 3 5 5 7 2 2 6 2 3 4 3 8 9 10 13 14 16 9 6 6 17 19 16 18 17 19 23 23 22
23 23 21 19 18 16 14 14 13 9 6 2 1 2 3 3 3 4 5 3 7 4 3 3 2 3 1 3 5 8 10 15 16 18 14 12 12 7 10 11 9 11 11 8 17 20 20
22 21 19 19 17 14 14 13 12 10 7 3 1 3 3 3 3 3 6 4 5 3 2 2 1 2 0 3 2 6 4 4 6 8 5 14 4 5 6 9 20 18 5 13 15 16 9
20 20 19 18 16 14 14 14 13 12 11 5 3 1 4 6 4 3 4 3 3 3 2 3 1 0 3 2 2 3 3 3 3 7 1 9 5 5 10 9 7 4 16 23 17 8 19
16 17 18 16 16 15 14 13 13 12 9 5 2 3 4 4 3 3 3 5 5 3 2 1 1 2 2 3 3 5 4 2 4 5 5 6 7 8 9 7 12 3 21 19 7 8 25
14 14 14 14 16 15 14 13 12 11 9 5 1 4 3 2 2 4 4 4 3 3 4 4 2 0 2 4 3 2 4 3 4 6 5 7 5 6 3 5 9 4 21 7 11 22 19
12 12 13 13 14 15 14 12 12 11 10 6 3 2 1 3 1 1 4 4 6 6 5 4 3 4 4 2 2 1 3 3 5 7 6 6 6 3 4 8 18 20 13 20 18 16 15
Wind_Direction
226 239 244 239 256 260 270 278 278 298 314 318 321 321 320 333 331 326 324 317 318 315 322 323 330 326 340 337 248 53 59 343 343 102 111 160 152 145 222 219 212 221 261 268 253 284 269
225 223 241 239 245 252 261 272 282 290 310 312 317 322 323 328 327 325 320 317 316 314 323 322 328 318 340 298 97 11 344 297 244 236 171 171 185 197 249 255 222 235 260 286 292 275 265
229 231 235 238 241 242 252 260 270 274 285 300 309 319 318 324 324 322 318 316 309 316 324 320 340 329 231 250 6 316 305 236 145 161 206 228 155 171 171 279 282 307 304 302 265 259 243
225 227 235 238 243 241 243 246 255 264 273 296 303 310 314 321 322 319 318 313 303 318 316 321 118 25 252 247 310 311 316 118 84 224 204 199 148 146 204 303 358 315 269 294 316 301 305
223 224 233 236 236 241 236 244 249 260 259 274 276 294 310 318 319 315 316 309 297 310 296 170 304 35 273 312 354 343 345 10 319 283 161 111 116 196 163 238 290 236 271 251 288 294 292
221 221 230 233 238 239 236 242 250 250 263 268 270 288 314 314 317 316 320 297 305 322 270 192 242 301 266 6 330 326 284 258 253 284 147 154 107 201 134 203 247 252 263 252 265 275 294
223 222 216 226 225 233 236 238 239 247 250 262 270 297 313 315 311 323 330 348 7 342 12 240 271 267 284 307 297 249 310 207 179 218 212 158 211 228 240 214 249 257 260 270 270 269 282
222 223 219 223 223 230 235 234 234 231 231 240 257 268 298 312 312 322 324 66 176 281 303 240 261 258 277 276 299 311 156 193 188 226 151 227 240 239 222 208 228 244 259 264 276 271 210
218 222 221 221 222 228 232 233 225 219 217 218 236 259 297 304 320 357 39 105 156 157 280 314 225 254 288 135 242 279 181 183 163 201 211 226 232 42 203 224 213 236 232 237 256 302 267
218 224 222 223 221 224 229 227 220 214 203 210 221 233 277 311 321 283 307 323 210 207 339 281 291 275 147 217 259 216 205 224 246 243 189 238 266 233 224 240 221 247 220 245 255 294 293
215 223 225 225 221 217 220 220 217 206 201 196 200 207 246 5 280 252 315 329 300 222 324 350 357 120 118 288 310 14 232 206 244 247 170 257 260 199 226 222 182 277 211 235 251 243 302
210 221 220 225 224 215 218 216 211 210 191 181 182 187 168 204 174 270 327 315 296 50 256 332 19 7 10 358 333 322 325 252 231 248 218 256 339 259 244 224 207 303 296 266 269 258 254
221 220 218 221 222 219 216 212 208 197 186 169 168 172 173 178 165 352 344 340 325 195 3 330 338 7 347 287 324 16 349 2 359 336 311 309 277 166 24 349 46 25 14 286 248 201 247
222 221 221 221 220 218 225 217 205 191 173 152 149 148 170 150 54 32 53 63 198 204 239 51 347 305 285 349 139 331 355 353 36 10 319 311 297 77 349 65 340 316 228 245 267 272 284
222 222 222 223 222 217 207 211 198 169 148 137 135 128 127 32 103 76 90 190 219 205 31 353 321 301 327 50 338 354 39 23 55 38 170 341 266 316 83 43 354 9 285 291 269 253 259
224 222 220 216 216 214 205 193 169 157 148 150 125 107 149 81 130 82 101 223 245 304 59 88 253 49 282 350 4 25 21 7 19 25 19 84 292 271 29 336 349 222 335 344 285 273 256
221 222 217 213 214 217 207 176 162 156 145 134 86 127 178 152 92 72 187 223 234 108 32 306 237 265 245 318 319 254 154 54 7 3 73 55 244 266 314 269 303 311 287 260 275 247 273
222 220 211 210 208 199 166 158 151 139 134 74 116 130 235 147 136 170 189 200 172 161 94 180 251 246 214 96 261 267 250 77 25 24 29 38 277 279 287 295 274 252 285 330 266 294 299
218 214 206 176 148 140 140 142 137 131 120 116 90 98 311 86 180 184 195 196 181 195 165 151 192 334 51 107 334 323 287 102 39 26 24 356 316 310 307 280 87 339 310 304 297 295 267
184 138 131 128 131 137 137 142 144 135 126 99 114 128 252 181 284 178 168 188 174 113 142 157 154 164 159 220 202 252 276 348 357 328 303 279 236 255 271 287 309 295 285 282 275 268 283
120 122 120 121 126 131 134 142 142 135 130 87 95 173 198 174 201 168 169 164 151 159 206 198 191 199 182 213 229 241 270 307 286 277 242 328 262 272 272 279 283 286 289 287 283 273 266
119 118 119 120 127 132 132 139 140 141 132 76 128 154 117 124 131 146 178 189 190 174 156 208 227 151 152 201 237 279 284 246 261 250 273 247 281 286 282 277 278 277 276 273 272 278 274
113 114 115 120 125 127 129 131 140 128 52 98 157 55 125 140 143 135 197 176 195 144 81 93 122 118 248 274 284 265 249 250 250 262 276 275 262 272 271 282 286 277 261 272 280 275 273
117 116 117 116 120 123 125 124 129 77 79 104 98 110 102 150 161 186 141 137 151 145 140 151 109 151 88 321 276 266 254 252 249 255 239 264 271 254 276 301 250 249 320 322 324 290 280
113 116 122 121 116 121 132 135 116 93 73 88 103 104 125 111 122 122 145 127 118 96 139 228 184 136 206 45 347 320 290 269 259 241 223 207 233 282 274 287 282 287 30 341 340 303 20
123 123 122 126 133 131 120 116 109 101 94 81 64 52 86 117 194 96 150 156 164 177 182 217 167 55 106 98 131 230 264 300 277 311 210 171 213 230 283 273 280 53 349 343 317 243 349
130 130 129 134 138 131 127 124 113 96 95 98 58 21 84 104 205 156 170 173 148 142 153 252 198 92 88 145 192 218 240 222 254 253 296 297 305 255 264 271 274 276 359 326 323 348 314
134 140 138 137 141 141 135 130 126 115 98 81 88 9 101 126 193 190 182 151 132 161 159 154 57 88 136 197 210 219 233 241 263 267 283 284 281 270 262 270 273 331 348 344 297 301 309
139 144 145 150 150 146 143 142 140 130 105 92 85 359 30 98 161 256 243 213 190 178 150 181 185 154 199 155 224 234 254 253 265 277 266 249 233 270 267 260 303 309 297 282 288 282 292